sat.trackr.live / text

‹ back to catalog

YAOGAN-4

NORAD 33446 · 2008-061A

PAYLOAD ACTIVE UNKNOWN

§ Identity

Operator
Country
PRC
Launch date
2008-12-01
Launch site
JSC
Launch vehicle
Mass (kg)
RCS (m²)
3.18

Purposes: earth_obs

External: N2YO · Heavens-Above · Gunter

§ Orbital elements

Epoch: 2026-09-15T18:21:50.020992Z

Period
97.08 min
Inclination
97.9326°
Eccentricity
0.0015239
Mean motion
14.83343358 rev/d
Perigee alt
608.1 km
Apogee alt
629.5 km
Semi-major
6,996.9 km
B*
9.2383e-5
RAAN
191.6210°
Arg perigee
131.4126°
Mean anomaly
228.8400°
Rev number
95,909

§ Raw data

YAOGAN-41 33446U 08061A   26258.76516228  .00000704  00000+0  92383-4 0  99942 33446  97.9326 191.6210 0015239 131.4126 228.8400 14.83343358959094

JSON: /api/v1/satellites/33446 · /tle

For live sub-satellite position, see the globe view (requires WebGL).

§ Visibility from observer

Set your observer location to see the next 7 days of passes ≥ 10°. The values pass through the URL so the page stays shareable.

No JS? Fill the form by hand. The geolocation button needs JavaScript.

§ Radio — SatNOGS DB

ModeDescriptionDownlinkUplink
FM S-Band Telemetry 2.217 GHz

1 transmitter · refreshed weekly from db.satnogs.org